Time,TemperatureF,DewpointF,PressureIn,WindDirection,WindDirectionDegrees,WindSpeedMPH,WindSpeedGustMPH,Humidity,HourlyPrecipIn,Conditions,Clouds,dailyrainin,SoftwareType,DateUTC
2013-02-17 00:00:00,28.9,17.1,29.47,North,0,0.0,0.0,61,0.00,,,0.00,WUHU216HW,2013-02-17 05:00:00,
2013-02-17 00:01:00,28.7,17.0,29.47,North,0,0.0,0.0,61,0.00,,,0.00,WUHU216HW,2013-02-17 05:01:00,
2013-02-17 00:10:00,28.7,17.0,29.47,North,0,0.0,0.0,61,0.00,,,0.00,WUHU216HW,2013-02-17 05:10:00,
2013-02-17 00:15:00,28.2,17.2,29.45,NNE,23,0.0,0.0,63,0.00,,,0.00,WUHU216HW,2013-02-17 05:15:00,
2013-02-17 00:20:00,28.0,17.0,29.44,North,0,0.0,0.0,63,0.00,,,0.00,WUHU216HW,2013-02-17 05:20:00,
2013-02-17 00:25:00,27.8,16.8,29.45,NNE,23,0.0,0.0,63,0.00,,,0.00,WUHU216HW,2013-02-17 05:25:00,
2013-02-17 00:30:00,27.6,17.0,29.45,West,270,3.1,3.1,64,0.00,,,0.00,WUHU216HW,2013-02-17 05:30:00,
2013-02-17 00:35:00,27.6,17.0,29.46,NE,45,0.0,3.1,64,0.00,,,0.00,WUHU216HW,2013-02-17 05:35:00,
2013-02-17 00:40:00,27.5,16.8,29.46,NNE,23,5.5,5.5,64,0.00,,,0.00,WUHU216HW,2013-02-17 05:40:00,
2013-02-17 00:45:00,27.1,16.8,29.44,NNE,23,0.0,5.5,65,0.00,,,0.00,WUHU216HW,2013-02-17 05:45:00,
2013-02-17 00:50:00,27.1,16.8,29.44,SE,135,0.0,0.0,65,0.00,,,0.00,WUHU216HW,2013-02-17 05:50:00,
2013-02-17 00:56:00,27.1,17.2,29.47,SW,225,0.0,0.0,66,0.00,,,0.00,WUHU216HW,2013-02-17 05:56:00,
2013-02-17 01:01:00,26.9,17.0,29.47,ESE,113,0.0,0.0,66,0.00,,,0.00,WUHU216HW,2013-02-17 06:01:00,
2013-02-17 01:10:00,26.9,17.0,29.47,ESE,113,0.0,0.0,66,0.00,,,0.00,WUHU216HW,2013-02-17 06:10:00,
2013-02-17 01:15:00,26.4,16.5,29.47,NE,45,0.0,0.0,66,0.00,,,0.00,WUHU216HW,2013-02-17 06:15:00,
2013-02-17 01:20:00,26.4,16.5,29.46,NE,45,0.0,0.0,66,0.00,,,0.00,WUHU216HW,2013-02-17 06:20:00,
2013-02-17 01:25:00,26.2,16.3,29.45,NE,45,0.0,0.0,66,0.00,,,0.00,WUHU216HW,2013-02-17 06:25:00,
2013-02-17 01:30:00,26.2,15.9,29.45,SE,135,0.0,0.0,65,0.00,,,0.00,WUHU216HW,2013-02-17 06:30:00,
2013-02-17 01:35:00,26.2,15.6,29.44,NNE,23,0.0,2.2,64,0.00,,,0.00,WUHU216HW,2013-02-17 06:35:00,
2013-02-17 01:40:00,26.0,15.4,29.43,NE,45,0.0,2.2,64,0.00,,,0.00,WUHU216HW,2013-02-17 06:40:00,
2013-02-17 01:45:00,25.8,15.2,29.43,NE,45,0.0,0.0,64,0.00,,,0.00,WUHU216HW,2013-02-17 06:45:00,
2013-02-17 01:51:00,25.8,15.2,29.43,NE,45,0.0,0.0,64,0.00,,,0.00,WUHU216HW,2013-02-17 06:51:00,
2013-02-17 01:56:00,25.7,15.1,29.43,ENE,68,0.0,0.0,64,0.00,,,0.00,WUHU216HW,2013-02-17 06:56:00,
2013-02-17 02:01:00,25.5,14.9,29.42,ENE,68,1.5,1.7,64,0.00,,,0.00,WUHU216HW,2013-02-17 07:01:00,
2013-02-17 02:10:00,25.5,14.9,29.42,ENE,68,1.5,1.5,64,0.00,,,0.00,WUHU216HW,2013-02-17 07:10:00,
2013-02-17 02:15:00,25.1,14.2,29.42,NNE,23,0.0,1.7,63,0.00,,,0.00,WUHU216HW,2013-02-17 07:15:00,
2013-02-17 02:20:00,25.1,14.2,29.42,NNE,23,0.0,1.7,63,0.00,,,0.00,WUHU216HW,2013-02-17 07:20:00,
2013-02-17 02:25:00,25.1,14.2,29.42,NNE,23,0.0,0.0,63,0.00,,,0.00,WUHU216HW,2013-02-17 07:25:00,
2013-02-17 02:30:00,24.9,14.1,29.42,NW,315,0.0,0.0,63,0.00,,,0.00,WUHU216HW,2013-02-17 07:30:00,
2013-02-17 02:35:00,24.9,14.1,29.42,North,0,0.0,0.0,63,0.00,,,0.00,WUHU216HW,2013-02-17 07:35:00,
2013-02-17 02:40:00,24.9,14.1,29.42,North,0,0.0,0.0,63,0.00,,,0.00,WUHU216HW,2013-02-17 07:40:00,
2013-02-17 02:45:00,24.9,13.7,29.42,NNE,23,2.0,2.0,62,0.00,,,0.00,WUHU216HW,2013-02-17 07:45:00,
2013-02-17 02:50:00,24.9,13.7,29.41,NW,315,0.0,2.0,62,0.00,,,0.00,WUHU216HW,2013-02-17 07:50:00,
2013-02-17 02:55:00,24.9,13.7,29.41,NE,45,4.4,4.4,62,0.00,,,0.00,WUHU216HW,2013-02-17 07:55:00,
2013-02-17 03:00:00,24.6,13.0,29.40,NNE,23,0.0,4.4,61,0.00,,,0.00,WUHU216HW,2013-02-17 08:00:00,
2013-02-17 03:08:00,24.6,13.0,29.40,NNE,23,0.0,0.0,61,0.00,,,0.00,WUHU216HW,2013-02-17 08:08:00,
2013-02-17 03:13:00,24.6,13.0,29.38,NW,315,1.5,4.2,61,0.00,,,0.00,WUHU216HW,2013-02-17 08:13:00,
2013-02-17 03:18:00,24.4,12.9,29.38,NW,315,4.0,4.2,61,0.00,,,0.00,WUHU216HW,2013-02-17 08:18:00,
2013-02-17 03:23:00,24.4,12.9,29.37,NNW,338,4.0,4.2,61,0.00,,,0.00,WUHU216HW,2013-02-17 08:23:00,
2013-02-17 03:28:00,24.4,12.9,29.37,NW,315,6.4,7.6,61,0.00,,,0.00,WUHU216HW,2013-02-17 08:28:00,
2013-02-17 03:33:00,24.0,12.8,29.38,NW,315,0.0,7.6,62,0.00,,,0.00,WUHU216HW,2013-02-17 08:33:00,
2013-02-17 03:38:00,23.7,12.8,29.39,ENE,68,0.0,6.4,63,0.00,,,0.00,WUHU216HW,2013-02-17 08:38:00,
2013-02-17 03:43:00,23.5,13.0,29.39,NNE,23,1.7,5.5,64,0.00,,,0.00,WUHU216HW,2013-02-17 08:43:00,
2013-02-17 03:48:00,23.3,13.2,29.39,South,180,0.0,4.9,65,0.00,,,0.00,WUHU216HW,2013-02-17 08:48:00,
2013-02-17 03:53:00,23.0,12.9,29.38,NW,315,6.4,6.4,65,0.00,,,0.00,WUHU216HW,2013-02-17 08:53:00,
2013-02-17 03:58:00,22.8,13.1,29.38,NW,315,0.0,6.4,66,0.00,,,0.00,WUHU216HW,2013-02-17 08:58:00,
2013-02-17 04:03:00,22.8,13.1,29.38,SSW,203,2.0,6.4,66,0.00,,,0.00,WUHU216HW,2013-02-17 09:03:00,
2013-02-17 04:08:00,22.8,12.7,29.37,WNW,293,0.0,2.0,65,0.00,,,0.00,WUHU216HW,2013-02-17 09:08:00,
2013-02-17 04:13:00,22.8,12.7,29.37,NNW,338,0.0,1.7,65,0.00,,,0.00,WUHU216HW,2013-02-17 09:13:00,
2013-02-17 04:18:00,22.8,12.7,29.38,NNW,338,0.0,0.0,65,0.00,,,0.00,WUHU216HW,2013-02-17 09:18:00,
2013-02-17 04:23:00,22.8,12.7,29.36,SW,225,0.0,2.4,65,0.00,,,0.00,WUHU216HW,2013-02-17 09:23:00,
2013-02-17 04:28:00,22.8,12.7,29.37,NW,315,5.1,5.1,65,0.00,,,0.00,WUHU216HW,2013-02-17 09:28:00,
2013-02-17 04:34:00,22.8,12.7,29.37,West,270,0.0,5.1,65,0.00,,,0.00,WUHU216HW,2013-02-17 09:34:00,
2013-02-17 04:39:00,22.6,12.9,29.36,WNW,293,0.0,5.1,66,0.00,,,0.00,WUHU216HW,2013-02-17 09:39:00,
2013-02-17 04:44:00,22.4,12.7,29.36,NW,315,0.0,4.6,66,0.00,,,0.00,WUHU216HW,2013-02-17 09:44:00,
2013-02-17 04:49:00,22.2,12.9,29.37,NNW,338,0.0,0.0,67,0.00,,,0.00,WUHU216HW,2013-02-17 09:49:00,
2013-02-17 04:54:00,22.2,12.9,29.37,West,270,0.0,0.0,68,0.00,,,0.00,WUHU216HW,2013-02-17 09:54:00,
2013-02-17 04:59:00,22.1,13.1,29.37,WSW,248,2.2,2.2,68,0.00,,,0.00,WUHU216HW,2013-02-17 09:59:00,
2013-02-17 05:04:00,22.1,13.1,29.36,West,270,2.0,2.2,68,0.00,,,0.00,WUHU216HW,2013-02-17 10:04:00,
2013-02-17 05:09:00,21.9,13.2,29.35,WSW,248,0.0,2.2,69,0.00,,,0.00,WUHU216HW,2013-02-17 10:09:00,
2013-02-17 05:14:00,21.7,13.1,29.35,WNW,293,0.0,2.2,69,0.00,,,0.00,WUHU216HW,2013-02-17 10:14:00,
2013-02-17 05:19:00,21.5,13.2,29.34,West,270,0.0,2.2,70,0.00,,,0.00,WUHU216HW,2013-02-17 10:19:00,
2013-02-17 05:24:00,21.3,13.1,29.34,WSW,248,5.8,5.8,70,0.00,,,0.00,WUHU216HW,2013-02-17 10:24:00,
2013-02-17 05:29:00,21.0,13.0,29.34,West,270,2.9,5.8,71,0.00,,,0.00,WUHU216HW,2013-02-17 10:29:00,
2013-02-17 05:34:00,20.8,13.1,29.34,WNW,293,6.4,6.4,72,0.00,,,0.00,WUHU216HW,2013-02-17 10:34:00,
2013-02-17 05:39:00,20.4,13.1,29.34,North,0,2.6,6.4,73,0.00,,,0.00,WUHU216HW,2013-02-17 10:39:00,
2013-02-17 05:44:00,20.4,13.1,29.34,NW,315,0.0,2.6,73,0.00,,,0.00,WUHU216HW,2013-02-17 10:44:00,
2013-02-17 05:49:00,20.3,12.9,29.34,NW,315,0.0,2.6,73,0.00,,,0.00,WUHU216HW,2013-02-17 10:49:00,
2013-02-17 05:54:00,20.1,13.0,29.34,NW,315,0.0,7.1,74,0.00,,,0.00,WUHU216HW,2013-02-17 10:54:00,
2013-02-17 06:00:00,19.9,12.8,29.33,West,270,0.0,7.1,74,0.00,,,0.00,WUHU216HW,2013-02-17 11:00:00,
2013-02-17 06:05:00,19.9,12.8,29.32,NNW,338,3.3,3.3,74,0.00,,,0.00,WUHU216HW,2013-02-17 11:05:00,
2013-02-17 06:10:00,19.7,12.7,29.32,NNW,338,0.0,3.3,74,0.00,,,0.00,WUHU216HW,2013-02-17 11:10:00,
2013-02-17 06:15:00,19.5,12.5,29.31,North,0,0.0,3.3,74,0.00,,,0.00,WUHU216HW,2013-02-17 11:15:00,
2013-02-17 06:20:00,19.5,12.8,29.31,North,0,0.0,0.0,75,0.00,,,0.00,WUHU216HW,2013-02-17 11:20:00,
2013-02-17 06:25:00,19.5,12.8,29.30,NNW,338,0.0,0.0,75,0.00,,,0.00,WUHU216HW,2013-02-17 11:25:00,
2013-02-17 06:30:00,19.2,12.4,29.30,NW,315,0.0,0.0,75,0.00,,,0.00,WUHU216HW,2013-02-17 11:30:00,
2013-02-17 06:35:00,19.2,12.4,29.30,WSW,248,0.0,0.0,75,0.00,,,0.00,WUHU216HW,2013-02-17 11:35:00,
2013-02-17 06:40:00,19.2,12.4,29.29,NNW,338,0.0,0.0,75,0.00,,,0.00,WUHU216HW,2013-02-17 11:40:00,
2013-02-17 06:45:00,19.2,12.4,29.30,West,270,0.0,0.0,75,0.00,,,0.00,WUHU216HW,2013-02-17 11:45:00,
2013-02-17 06:50:00,19.2,12.4,29.30,SW,225,0.0,0.0,75,0.00,,,0.00,WUHU216HW,2013-02-17 11:50:00,
2013-02-17 06:55:00,19.2,12.4,29.30,WNW,293,0.0,0.0,75,0.00,,,0.00,WUHU216HW,2013-02-17 11:55:00,
2013-02-17 07:00:00,19.0,12.3,29.30,West,270,0.0,0.0,75,0.00,,,0.00,WUHU216HW,2013-02-17 12:00:00,
2013-02-17 07:05:00,19.0,12.3,29.29,West,270,0.0,0.0,75,0.00,,,0.00,WUHU216HW,2013-02-17 12:05:00,
2013-02-17 07:10:00,19.0,12.3,29.29,NW,315,0.0,0.0,75,0.00,,,0.00,WUHU216HW,2013-02-17 12:10:00,
2013-02-17 07:15:00,18.8,12.1,29.28,WSW,248,0.0,0.0,75,0.00,,,0.00,WUHU216HW,2013-02-17 12:15:00,
2013-02-17 07:20:00,18.8,12.1,29.28,WNW,293,0.0,0.0,75,0.00,,,0.00,WUHU216HW,2013-02-17 12:20:00,
2013-02-17 07:25:00,18.8,12.1,29.28,WSW,248,0.0,0.0,75,0.00,,,0.00,WUHU216HW,2013-02-17 12:25:00,
2013-02-17 07:30:00,18.6,11.9,29.28,SW,225,0.0,0.0,75,0.00,,,0.00,WUHU216HW,2013-02-17 12:30:00,
2013-02-17 07:35:00,18.5,11.7,29.28,NW,315,0.0,0.0,75,0.00,,,0.00,WUHU216HW,2013-02-17 12:35:00,
2013-02-17 07:40:00,18.5,11.7,29.27,SSW,203,0.0,0.0,75,0.00,,,0.00,WUHU216HW,2013-02-17 12:40:00,
2013-02-17 07:45:00,18.6,11.9,29.27,WSW,248,0.0,0.0,75,0.00,,,0.00,WUHU216HW,2013-02-17 12:45:00,
2013-02-17 07:50:00,18.6,11.9,29.27,West,270,0.0,0.0,75,0.00,,,0.00,WUHU216HW,2013-02-17 12:50:00,
2013-02-17 07:55:00,18.6,11.9,29.27,West,270,0.0,0.0,75,0.00,,,0.00,WUHU216HW,2013-02-17 12:55:00,
2013-02-17 08:00:00,18.5,11.7,29.26,NNW,338,0.0,0.0,75,0.00,,,0.00,WUHU216HW,2013-02-17 13:00:00,
2013-02-17 08:05:00,18.5,11.7,29.26,WNW,293,0.0,0.0,75,0.00,,,0.00,WUHU216HW,2013-02-17 13:05:00,
2013-02-17 08:10:00,18.5,11.7,29.26,WNW,293,0.0,0.0,75,0.00,,,0.00,WUHU216HW,2013-02-17 13:10:00,
2013-02-17 08:15:00,18.3,11.6,29.26,South,180,0.0,0.0,75,0.00,,,0.00,WUHU216HW,2013-02-17 13:15:00,
2013-02-17 08:21:00,18.3,11.6,29.25,WSW,248,0.0,0.0,75,0.00,,,0.00,WUHU216HW,2013-02-17 13:21:00,
2013-02-17 08:26:00,18.5,11.7,29.25,SSE,158,0.0,0.0,75,0.00,,,0.00,WUHU216HW,2013-02-17 13:26:00,
2013-02-17 08:31:00,18.5,11.7,29.25,SW,225,0.0,0.0,75,0.00,,,0.00,WUHU216HW,2013-02-17 13:31:00,
2013-02-17 08:36:00,18.5,11.7,29.24,West,270,0.0,0.0,75,0.00,,,0.00,WUHU216HW,2013-02-17 13:36:00,
2013-02-17 08:41:00,18.5,11.7,29.24,NNW,338,0.0,0.0,75,0.00,,,0.00,WUHU216HW,2013-02-17 13:41:00,
2013-02-17 08:46:00,18.5,11.4,29.23,East,90,0.0,0.0,74,0.00,,,0.00,WUHU216HW,2013-02-17 13:46:00,
2013-02-17 08:51:00,18.6,11.6,29.23,WSW,248,0.0,0.0,74,0.00,,,0.00,WUHU216HW,2013-02-17 13:51:00,
2013-02-17 08:56:00,18.6,11.3,29.23,WSW,248,0.0,0.0,73,0.00,,,0.00,WUHU216HW,2013-02-17 13:56:00,
2013-02-17 09:01:00,19.0,11.3,29.22,WNW,293,0.0,0.0,72,0.00,,,0.00,WUHU216HW,2013-02-17 14:01:00,
2013-02-17 09:06:00,19.0,11.3,29.22,SW,225,0.0,0.0,72,0.00,,,0.00,WUHU216HW,2013-02-17 14:06:00,
2013-02-17 09:11:00,19.2,11.2,29.21,SSW,203,0.0,0.0,71,0.00,,,0.00,WUHU216HW,2013-02-17 14:11:00,
2013-02-17 09:17:00,19.5,11.3,29.21,WSW,248,0.0,0.0,70,0.00,,,0.00,WUHU216HW,2013-02-17 14:17:00,
2013-02-17 09:22:00,19.5,10.9,29.21,South,180,0.0,0.0,69,0.00,,,0.00,WUHU216HW,2013-02-17 14:22:00,
2013-02-17 09:27:00,19.5,10.9,29.21,SE,135,0.0,0.0,69,0.00,,,0.00,WUHU216HW,2013-02-17 14:27:00,
2013-02-17 09:32:00,19.7,10.7,29.20,West,270,0.0,0.0,68,0.00,,,0.00,WUHU216HW,2013-02-17 14:32:00,
2013-02-17 09:37:00,20.1,10.8,29.20,WSW,248,0.0,0.0,67,0.00,,,0.00,WUHU216HW,2013-02-17 14:37:00,
2013-02-17 09:42:00,20.1,10.8,29.20,WSW,248,4.6,4.6,67,0.00,,,0.00,WUHU216HW,2013-02-17 14:42:00,
2013-02-17 09:47:00,20.4,10.8,29.20,NW,315,0.0,4.9,66,0.00,,,0.00,WUHU216HW,2013-02-17 14:47:00,
2013-02-17 09:52:00,20.4,10.4,29.20,SE,135,0.0,4.9,65,0.00,,,0.00,WUHU216HW,2013-02-17 14:52:00,
2013-02-17 09:57:00,20.4,10.4,29.20,WSW,248,9.6,9.6,65,0.00,,,0.00,WUHU216HW,2013-02-17 14:57:00,
2013-02-17 10:02:00,20.8,10.8,29.19,WNW,293,0.0,9.6,65,0.00,,,0.00,WUHU216HW,2013-02-17 15:02:00,
2013-02-17 10:07:00,21.0,10.6,29.20,WNW,293,8.5,8.5,64,0.00,,,0.00,WUHU216HW,2013-02-17 15:07:00,
2013-02-17 10:12:00,21.0,10.3,29.20,West,270,6.4,8.5,63,0.00,,,0.00,WUHU216HW,2013-02-17 15:12:00,
2013-02-17 10:17:00,21.3,10.3,29.19,NW,315,0.0,8.5,62,0.00,,,0.00,WUHU216HW,2013-02-17 15:17:00,
2013-02-17 10:22:00,21.5,10.1,29.19,NW,315,0.0,7.6,61,0.00,,,0.00,WUHU216HW,2013-02-17 15:22:00,
2013-02-17 10:27:00,21.9,10.1,29.19,WSW,248,8.9,8.9,60,0.00,,,0.00,WUHU216HW,2013-02-17 15:27:00,
2013-02-17 10:32:00,21.9,10.1,29.20,SW,225,6.2,8.9,60,0.00,,,0.00,WUHU216HW,2013-02-17 15:32:00,
2013-02-17 10:37:00,22.2,10.0,29.19,SSE,158,2.0,8.9,59,0.00,,,0.00,WUHU216HW,2013-02-17 15:37:00,
2013-02-17 10:43:00,22.8,10.1,29.19,West,270,2.9,8.0,58,0.00,,,0.00,WUHU216HW,2013-02-17 15:43:00,
2013-02-17 10:48:00,22.8,9.7,29.19,West,270,4.4,8.0,57,0.00,,,0.00,WUHU216HW,2013-02-17 15:48:00,
2013-02-17 10:53:00,23.1,10.0,29.19,NW,315,3.5,4.4,57,0.00,,,0.00,WUHU216HW,2013-02-17 15:53:00,
2013-02-17 10:58:00,23.5,10.0,29.20,West,270,3.5,7.3,56,0.00,,,0.00,WUHU216HW,2013-02-17 15:58:00,
2013-02-17 11:03:00,23.7,9.8,29.19,South,180,0.0,7.3,55,0.00,,,0.00,WUHU216HW,2013-02-17 16:03:00,
2013-02-17 11:08:00,23.9,9.9,29.20,SW,225,2.2,7.3,55,0.00,,,0.00,WUHU216HW,2013-02-17 16:08:00,
2013-02-17 11:13:00,24.6,10.6,29.20,SSW,203,5.8,8.2,55,0.00,,,0.00,WUHU216HW,2013-02-17 16:13:00,
2013-02-17 11:18:00,24.8,10.4,29.20,WSW,248,4.0,8.2,54,0.00,,,0.00,WUHU216HW,2013-02-17 16:18:00,
2013-02-17 11:23:00,24.9,10.5,29.20,SSW,203,3.3,8.9,54,0.00,,,0.00,WUHU216HW,2013-02-17 16:23:00,
2013-02-17 11:28:00,24.9,10.1,29.19,WNW,293,6.0,8.9,53,0.00,,,0.00,WUHU216HW,2013-02-17 16:28:00,
2013-02-17 11:33:00,25.3,10.5,29.19,ESE,113,0.0,7.3,53,0.00,,,0.00,WUHU216HW,2013-02-17 16:33:00,
2013-02-17 11:38:00,25.1,9.9,29.19,NW,315,7.6,7.6,52,0.00,,,0.00,WUHU216HW,2013-02-17 16:38:00,
2013-02-17 11:44:00,25.5,10.2,29.19,WNW,293,1.1,8.0,52,0.00,,,0.00,WUHU216HW,2013-02-17 16:44:00,
2013-02-17 11:49:00,25.5,10.2,29.18,West,270,3.1,8.0,52,0.00,,,0.00,WUHU216HW,2013-02-17 16:49:00,
2013-02-17 11:54:00,25.5,10.2,29.19,SW,225,6.0,6.0,52,0.00,,,0.00,WUHU216HW,2013-02-17 16:54:00,
2013-02-17 11:59:00,25.5,10.2,29.19,West,270,7.1,7.1,52,0.00,,,0.00,WUHU216HW,2013-02-17 16:59:00,
2013-02-17 12:04:00,25.3,9.6,29.19,WNW,293,0.8,7.1,51,0.00,,,0.00,WUHU216HW,2013-02-17 17:04:00,
2013-02-17 12:09:00,25.3,9.6,29.18,WSW,248,1.1,5.5,51,0.00,,,0.00,WUHU216HW,2013-02-17 17:09:00,
2013-02-17 12:14:00,24.9,9.3,29.19,West,270,4.6,5.5,51,0.00,,,0.00,WUHU216HW,2013-02-17 17:14:00,
2013-02-17 12:19:00,24.9,9.3,29.19,West,270,6.7,6.7,51,0.00,,,0.00,WUHU216HW,2013-02-17 17:19:00,
2013-02-17 12:24:00,24.6,8.6,29.19,WSW,248,6.7,6.7,50,0.00,,,0.00,WUHU216HW,2013-02-17 17:24:00,
2013-02-17 12:29:00,24.6,8.6,29.19,NW,315,4.9,7.1,50,0.00,,,0.00,WUHU216HW,2013-02-17 17:29:00,
2013-02-17 12:34:00,24.6,8.6,29.19,West,270,8.5,11.6,50,0.00,,,0.00,WUHU216HW,2013-02-17 17:34:00,
2013-02-17 12:40:00,24.6,8.6,29.19,WNW,293,0.0,11.6,50,0.00,,,0.00,WUHU216HW,2013-02-17 17:40:00,
2013-02-17 12:45:00,24.4,7.9,29.20,WSW,248,0.0,8.9,49,0.00,,,0.00,WUHU216HW,2013-02-17 17:45:00,
2013-02-17 12:50:00,24.0,8.1,29.20,NW,315,3.3,8.9,50,0.00,,,0.00,WUHU216HW,2013-02-17 17:50:00,
2013-02-17 12:55:00,23.9,7.4,29.20,WSW,248,3.8,5.3,49,0.00,,,0.00,WUHU216HW,2013-02-17 17:55:00,
2013-02-17 13:00:00,23.9,7.4,29.20,WNW,293,6.2,8.0,49,0.00,,,0.00,WUHU216HW,2013-02-17 18:00:00,
2013-02-17 13:05:00,23.7,7.3,29.20,NNW,338,7.1,8.0,49,0.00,,,0.00,WUHU216HW,2013-02-17 18:05:00,
2013-02-17 13:10:00,23.5,7.1,29.20,SSW,203,9.6,9.6,49,0.00,,,0.00,WUHU216HW,2013-02-17 18:10:00,
2013-02-17 13:15:00,23.3,6.9,29.20,SW,225,8.0,9.8,49,0.00,,,0.00,WUHU216HW,2013-02-17 18:15:00,
2013-02-17 13:20:00,23.1,6.8,29.20,NW,315,10.2,10.2,49,0.00,,,0.00,WUHU216HW,2013-02-17 18:20:00,
2013-02-17 13:25:00,23.1,6.8,29.21,South,180,6.4,10.2,49,0.00,,,0.00,WUHU216HW,2013-02-17 18:25:00,
2013-02-17 13:30:00,23.0,6.1,29.21,NNW,338,6.4,8.7,48,0.00,,,0.00,WUHU216HW,2013-02-17 18:30:00,
2013-02-17 13:35:00,22.8,6.0,29.21,ENE,68,5.5,9.3,48,0.00,,,0.00,WUHU216HW,2013-02-17 18:35:00,
2013-02-17 13:40:00,22.8,6.0,29.21,SW,225,6.9,9.3,48,0.00,,,0.00,WUHU216HW,2013-02-17 18:40:00,
2013-02-17 13:45:00,22.6,5.8,29.21,WSW,248,7.1,7.1,48,0.00,,,0.00,WUHU216HW,2013-02-17 18:45:00,
2013-02-17 13:50:00,22.8,6.4,29.21,WSW,248,8.0,8.0,49,0.00,,,0.00,WUHU216HW,2013-02-17 18:50:00,
2013-02-17 13:55:00,22.8,5.5,29.22,North,0,6.0,8.0,47,0.00,,,0.00,WUHU216HW,2013-02-17 18:55:00,
2013-02-17 14:00:00,22.6,5.3,29.22,NW,315,6.4,8.2,47,0.00,,,0.00,WUHU216HW,2013-02-17 19:00:00,
2013-02-17 14:05:00,22.6,5.3,29.22,NW,315,6.9,11.1,47,0.00,,,0.00,WUHU216HW,2013-02-17 19:05:00,
2013-02-17 14:10:00,22.6,5.3,29.22,WSW,248,7.8,11.1,47,0.00,,,0.00,WUHU216HW,2013-02-17 19:10:00,
2013-02-17 14:15:00,22.8,6.0,29.22,SW,225,6.2,7.8,48,0.00,,,0.00,WUHU216HW,2013-02-17 19:15:00,
2013-02-17 14:21:00,22.8,5.5,29.23,West,270,7.6,7.8,48,0.00,,,0.00,WUHU216HW,2013-02-17 19:21:00,
2013-02-17 14:26:00,23.0,5.7,29.23,SSE,158,0.2,7.6,47,0.00,,,0.00,WUHU216HW,2013-02-17 19:26:00,
2013-02-17 14:31:00,23.0,5.2,29.23,NW,315,8.5,8.5,46,0.00,,,0.00,WUHU216HW,2013-02-17 19:31:00,
2013-02-17 14:36:00,23.1,5.8,29.23,West,270,2.2,8.5,47,0.00,,,0.00,WUHU216HW,2013-02-17 19:36:00,
2013-02-17 14:41:00,23.3,6.0,29.23,West,270,6.7,6.9,47,0.00,,,0.00,WUHU216HW,2013-02-17 19:41:00,
2013-02-17 14:46:00,23.3,6.0,29.23,West,270,6.9,6.9,47,0.00,,,0.00,WUHU216HW,2013-02-17 19:46:00,
2013-02-17 14:51:00,23.1,5.3,29.23,ENE,68,1.1,6.9,46,0.00,,,0.00,WUHU216HW,2013-02-17 19:51:00,
2013-02-17 14:56:00,23.0,5.7,29.24,NNW,338,8.2,8.2,47,0.00,,,0.00,WUHU216HW,2013-02-17 19:56:00,
2013-02-17 15:01:00,23.0,5.2,29.24,SW,225,7.6,8.2,46,0.00,,,0.00,WUHU216HW,2013-02-17 20:01:00,
2013-02-17 15:06:00,22.8,5.5,29.24,WSW,248,9.8,9.8,47,0.00,,,0.00,WUHU216HW,2013-02-17 20:06:00,
2013-02-17 15:11:00,22.8,5.0,29.24,WNW,293,2.9,11.4,46,0.00,,,0.00,WUHU216HW,2013-02-17 20:11:00,
2013-02-17 15:16:00,22.8,5.0,29.24,NW,315,0.0,11.4,46,0.00,,,0.00,WUHU216HW,2013-02-17 20:16:00,
2013-02-17 15:21:00,22.6,5.3,29.25,NNW,338,13.6,13.6,47,0.00,,,0.00,WUHU216HW,2013-02-17 20:21:00,
2013-02-17 15:26:00,22.6,4.8,29.25,SW,225,8.7,13.6,46,0.00,,,0.00,WUHU216HW,2013-02-17 20:26:00,
2013-02-17 15:31:00,22.6,5.3,29.24,SW,225,7.1,13.6,47,0.00,,,0.00,WUHU216HW,2013-02-17 20:31:00,
2013-02-17 15:36:00,22.4,5.1,29.25,WSW,248,8.7,12.5,47,0.00,,,0.00,WUHU216HW,2013-02-17 20:36:00,
2013-02-17 15:41:00,22.2,5.0,29.26,West,270,0.0,8.7,47,0.00,,,0.00,WUHU216HW,2013-02-17 20:41:00,
2013-02-17 15:46:00,22.2,4.5,29.26,West,270,5.8,11.8,46,0.00,,,0.00,WUHU216HW,2013-02-17 20:46:00,
2013-02-17 15:51:00,22.2,4.5,29.26,West,270,6.0,11.8,46,0.00,,,0.00,WUHU216HW,2013-02-17 20:51:00,
2013-02-17 15:56:00,22.2,4.5,29.26,NW,315,3.3,10.7,46,0.00,,,0.00,WUHU216HW,2013-02-17 20:56:00,
2013-02-17 16:02:00,22.4,4.6,29.26,NNW,338,2.6,10.7,46,0.00,,,0.00,WUHU216HW,2013-02-17 21:02:00,
2013-02-17 16:07:00,22.6,4.8,29.26,SSW,203,5.5,9.1,46,0.00,,,0.00,WUHU216HW,2013-02-17 21:07:00,
2013-02-17 16:12:00,22.6,4.8,29.27,West,270,12.9,12.9,46,0.00,,,0.00,WUHU216HW,2013-02-17 21:12:00,
2013-02-17 16:17:00,22.8,5.0,29.27,NW,315,5.3,12.9,46,0.00,,,0.00,WUHU216HW,2013-02-17 21:17:00,
2013-02-17 16:22:00,22.6,5.0,29.27,WSW,248,2.4,10.0,46,0.00,,,0.00,WUHU216HW,2013-02-17 21:22:00,
2013-02-17 16:27:00,22.6,4.8,29.27,WSW,248,11.4,11.4,46,0.00,,,0.00,WUHU216HW,2013-02-17 21:27:00,
2013-02-17 16:32:00,22.6,4.8,29.28,WNW,293,7.6,15.6,46,0.00,,,0.00,WUHU216HW,2013-02-17 21:32:00,
2013-02-17 16:37:00,22.6,4.8,29.28,West,270,6.9,15.6,46,0.00,,,0.00,WUHU216HW,2013-02-17 21:37:00,
2013-02-17 16:42:00,22.6,4.8,29.28,NW,315,12.3,12.3,46,0.00,,,0.00,WUHU216HW,2013-02-17 21:42:00,
2013-02-17 16:47:00,22.4,4.6,29.29,West,270,7.8,12.3,47,0.00,,,0.00,WUHU216HW,2013-02-17 21:47:00,
2013-02-17 16:52:00,22.4,5.1,29.29,SSW,203,6.7,8.2,47,0.00,,,0.00,WUHU216HW,2013-02-17 21:52:00,
2013-02-17 16:57:00,22.2,4.5,29.29,WSW,248,6.2,8.0,46,0.00,,,0.00,WUHU216HW,2013-02-17 21:57:00,
2013-02-17 17:02:00,22.2,4.5,29.29,WSW,248,4.4,8.0,46,0.00,,,0.00,WUHU216HW,2013-02-17 22:02:00,
2013-02-17 17:07:00,22.1,4.8,29.29,SW,225,0.0,7.3,47,0.00,,,0.00,WUHU216HW,2013-02-17 22:07:00,
2013-02-17 17:12:00,22.1,4.8,29.30,WNW,293,7.1,7.3,47,0.00,,,0.00,WUHU216HW,2013-02-17 22:12:00,
2013-02-17 17:17:00,22.1,4.8,29.30,West,270,6.2,8.5,47,0.00,,,0.00,WUHU216HW,2013-02-17 22:17:00,
2013-02-17 17:22:00,22.1,4.3,29.31,West,270,8.0,8.5,46,0.00,,,0.00,WUHU216HW,2013-02-17 22:22:00,
2013-02-17 17:27:00,22.1,4.3,29.31,SSW,203,6.7,9.1,46,0.00,,,0.00,WUHU216HW,2013-02-17 22:27:00,
2013-02-17 17:32:00,22.1,4.3,29.31,WSW,248,2.0,9.1,46,0.00,,,0.00,WUHU216HW,2013-02-17 22:32:00,
2013-02-17 17:37:00,22.1,4.8,29.31,West,270,3.3,6.9,47,0.00,,,0.00,WUHU216HW,2013-02-17 22:37:00,
2013-02-17 17:42:00,22.1,4.3,29.31,NW,315,6.7,6.7,46,0.00,,,0.00,WUHU216HW,2013-02-17 22:42:00,
2013-02-17 17:47:00,22.1,4.3,29.32,WNW,293,2.9,6.7,46,0.00,,,0.00,WUHU216HW,2013-02-17 22:47:00,
2013-02-17 17:52:00,22.1,4.3,29.32,WNW,293,7.3,7.3,46,0.00,,,0.00,WUHU216HW,2013-02-17 22:52:00,
2013-02-17 17:57:00,22.1,4.3,29.32,NW,315,2.0,7.3,46,0.00,,,0.00,WUHU216HW,2013-02-17 22:57:00,
2013-02-17 18:02:00,22.1,4.3,29.33,West,270,2.6,4.4,46,0.00,,,0.00,WUHU216HW,2013-02-17 23:02:00,
2013-02-17 18:07:00,22.1,4.3,29.32,North,0,4.2,4.2,46,0.00,,,0.00,WUHU216HW,2013-02-17 23:07:00,
2013-02-17 18:12:00,22.1,4.3,29.32,WSW,248,7.3,7.3,46,0.00,,,0.00,WUHU216HW,2013-02-17 23:12:00,
2013-02-17 18:17:00,22.1,4.3,29.32,West,270,10.9,10.9,46,0.00,,,0.00,WUHU216HW,2013-02-17 23:17:00,
2013-02-17 18:22:00,21.9,4.1,29.32,SW,225,4.9,10.9,46,0.00,,,0.00,WUHU216HW,2013-02-17 23:22:00,
2013-02-17 18:27:00,21.9,4.1,29.33,NW,315,9.1,9.1,46,0.00,,,0.00,WUHU216HW,2013-02-17 23:27:00,
2013-02-17 18:32:00,21.9,3.7,29.33,WSW,248,7.8,9.1,45,0.00,,,0.00,WUHU216HW,2013-02-17 23:32:00,
2013-02-17 18:37:00,21.9,3.7,29.33,SW,225,6.7,10.5,45,0.00,,,0.00,WUHU216HW,2013-02-17 23:37:00,
2013-02-17 18:43:00,21.7,3.5,29.32,WSW,248,7.1,10.5,45,0.00,,,0.00,WUHU216HW,2013-02-17 23:43:00,
2013-02-17 18:48:00,21.7,3.0,29.33,West,270,3.5,8.7,44,0.00,,,0.00,WUHU216HW,2013-02-17 23:48:00,
2013-02-17 18:53:00,21.7,3.0,29.32,West,270,5.5,9.8,44,0.00,,,0.00,WUHU216HW,2013-02-17 23:53:00,
2013-02-17 18:58:00,21.7,3.0,29.33,NNW,338,4.4,9.8,44,0.00,,,0.00,WUHU216HW,2013-02-17 23:58:00,
2013-02-17 19:03:00,21.7,3.0,29.33,West,270,11.6,11.6,44,0.00,,,0.00,WUHU216HW,2013-02-18 00:03:00,
2013-02-17 19:08:00,21.5,2.8,29.33,WSW,248,8.2,11.6,44,0.00,,,0.00,WUHU216HW,2013-02-18 00:08:00,
2013-02-17 19:13:00,21.5,2.8,29.33,West,270,3.1,9.3,44,0.00,,,0.00,WUHU216HW,2013-02-18 00:13:00,
2013-02-17 19:18:00,21.5,3.3,29.33,SW,225,10.0,27.2,45,0.00,,,0.00,WUHU216HW,2013-02-18 00:18:00,
2013-02-17 19:23:00,21.3,3.6,29.33,NW,315,1.7,27.2,46,0.00,,,0.00,WUHU216HW,2013-02-18 00:23:00,
2013-02-17 19:28:00,21.3,2.7,29.32,West,270,7.8,10.2,44,0.00,,,0.00,WUHU216HW,2013-02-18 00:28:00,
2013-02-17 19:33:00,21.3,2.7,29.33,WSW,248,8.0,8.0,44,0.00,,,0.00,WUHU216HW,2013-02-18 00:33:00,
2013-02-17 19:38:00,21.3,2.7,29.33,WNW,293,10.0,10.9,44,0.00,,,0.00,WUHU216HW,2013-02-18 00:38:00,
2013-02-17 19:43:00,21.0,2.3,29.33,WSW,248,7.8,10.9,44,0.00,,,0.00,WUHU216HW,2013-02-18 00:43:00,
2013-02-17 19:48:00,21.0,2.3,29.33,West,270,7.8,8.9,44,0.00,,,0.00,WUHU216HW,2013-02-18 00:48:00,
2013-02-17 19:53:00,21.0,2.3,29.33,WSW,248,7.8,8.9,44,0.00,,,0.00,WUHU216HW,2013-02-18 00:53:00,
2013-02-17 19:58:00,21.0,2.3,29.33,SW,225,1.7,8.0,44,0.00,,,0.00,WUHU216HW,2013-02-18 00:58:00,
2013-02-17 20:03:00,20.8,2.2,29.33,West,270,10.0,10.0,44,0.00,,,0.00,WUHU216HW,2013-02-18 01:03:00,
2013-02-17 20:08:00,20.8,1.7,29.34,WNW,293,11.8,11.8,43,0.00,,,0.00,WUHU216HW,2013-02-18 01:08:00,
2013-02-17 20:13:00,20.8,1.2,29.33,SW,225,12.0,12.0,42,0.00,,,0.00,WUHU216HW,2013-02-18 01:13:00,
2013-02-17 20:18:00,20.8,1.2,29.34,West,270,6.7,12.0,42,0.00,,,0.00,WUHU216HW,2013-02-18 01:18:00,
2013-02-17 20:23:00,20.4,1.4,29.34,WSW,248,7.8,15.2,43,0.00,,,0.00,WUHU216HW,2013-02-18 01:23:00,
2013-02-17 20:28:00,20.4,1.4,29.34,WSW,248,6.0,15.2,43,0.00,,,0.00,WUHU216HW,2013-02-18 01:28:00,
2013-02-17 20:33:00,20.4,1.4,29.35,NW,315,12.7,14.0,43,0.00,,,0.00,WUHU216HW,2013-02-18 01:33:00,
2013-02-17 20:38:00,20.3,1.7,29.36,West,270,4.0,12.7,44,0.00,,,0.00,WUHU216HW,2013-02-18 01:38:00,
2013-02-17 20:43:00,20.1,1.5,29.36,SSW,203,6.0,7.6,44,0.00,,,0.00,WUHU216HW,2013-02-18 01:43:00,
2013-02-17 20:48:00,20.1,1.5,29.36,NNW,338,6.2,8.2,44,0.00,,,0.00,WUHU216HW,2013-02-18 01:48:00,
2013-02-17 20:53:00,19.9,1.4,29.36,WSW,248,8.5,8.5,44,0.00,,,0.00,WUHU216HW,2013-02-18 01:53:00,
2013-02-17 20:58:00,19.9,1.4,29.37,West,270,7.3,8.5,44,0.00,,,0.00,WUHU216HW,2013-02-18 01:58:00,
2013-02-17 21:03:00,19.5,1.0,29.37,WSW,248,6.4,8.5,44,0.00,,,0.00,WUHU216HW,2013-02-18 02:03:00,
2013-02-17 21:08:00,19.5,1.5,29.37,West,270,6.0,7.3,45,0.00,,,0.00,WUHU216HW,2013-02-18 02:08:00,
2013-02-17 21:13:00,19.4,0.9,29.37,WSW,248,7.3,7.3,44,0.00,,,0.00,WUHU216HW,2013-02-18 02:13:00,
2013-02-17 21:18:00,19.2,0.7,29.37,WSW,248,7.8,7.8,44,0.00,,,0.00,WUHU216HW,2013-02-18 02:18:00,
2013-02-17 21:23:00,19.0,1.0,29.39,West,270,11.4,11.4,45,0.00,,,0.00,WUHU216HW,2013-02-18 02:23:00,
2013-02-17 21:28:00,18.8,1.3,29.39,West,270,6.9,11.4,46,0.00,,,0.00,WUHU216HW,2013-02-18 02:28:00,
2013-02-17 21:33:00,18.6,1.2,29.39,West,270,7.3,11.4,46,0.00,,,0.00,WUHU216HW,2013-02-18 02:33:00,
2013-02-17 21:39:00,18.5,1.0,29.39,West,270,8.2,8.2,46,0.00,,,0.00,WUHU216HW,2013-02-18 02:39:00,
2013-02-17 21:44:00,18.3,0.8,29.39,NW,315,8.9,8.9,46,0.00,,,0.00,WUHU216HW,2013-02-18 02:44:00,
2013-02-17 21:49:00,18.3,0.8,29.40,SW,225,6.7,8.9,46,0.00,,,0.00,WUHU216HW,2013-02-18 02:49:00,
2013-02-17 21:54:00,18.1,0.7,29.40,WSW,248,7.3,8.9,46,0.00,,,0.00,WUHU216HW,2013-02-18 02:54:00,
2013-02-17 21:59:00,17.9,0.5,29.41,West,270,4.9,10.7,46,0.00,,,0.00,WUHU216HW,2013-02-18 02:59:00,
2013-02-17 22:04:00,17.7,0.4,29.41,NW,315,12.9,13.1,46,0.00,,,0.00,WUHU216HW,2013-02-18 03:04:00,
2013-02-17 22:09:00,17.4,0.0,29.41,WSW,248,3.8,13.1,46,0.00,,,0.00,WUHU216HW,2013-02-18 03:09:00,
2013-02-17 22:14:00,17.4,0.5,29.42,NW,315,7.3,7.3,47,0.00,,,0.00,WUHU216HW,2013-02-18 03:14:00,
2013-02-17 22:19:00,17.2,0.3,29.42,SW,225,7.1,9.1,47,0.00,,,0.00,WUHU216HW,2013-02-18 03:19:00,
2013-02-17 22:24:00,17.2,0.3,29.43,WSW,248,8.2,9.1,47,0.00,,,0.00,WUHU216HW,2013-02-18 03:24:00,
2013-02-17 22:29:00,17.2,0.3,29.43,North,0,8.0,8.2,47,0.00,,,0.00,WUHU216HW,2013-02-18 03:29:00,
2013-02-17 22:34:00,16.8,0.0,29.43,West,270,18.3,18.3,47,0.00,,,0.00,WUHU216HW,2013-02-18 03:34:00,
2013-02-17 22:39:00,16.8,0.0,29.44,NW,315,4.6,18.3,47,0.00,,,0.00,WUHU216HW,2013-02-18 03:39:00,
2013-02-17 22:44:00,16.7,0.3,29.44,NW,315,6.9,18.3,48,0.00,,,0.00,WUHU216HW,2013-02-18 03:44:00,
2013-02-17 22:50:00,16.5,0.1,29.44,SW,225,7.3,7.3,48,0.00,,,0.00,WUHU216HW,2013-02-18 03:50:00,
2013-02-17 22:55:00,16.3,0.0,29.44,NW,315,5.3,7.3,48,0.00,,,0.00,WUHU216HW,2013-02-18 03:55:00,
2013-02-17 23:00:00,16.3,0.0,29.44,SW,225,10.0,10.0,48,0.00,,,0.00,WUHU216HW,2013-02-18 04:00:00,
2013-02-17 23:05:00,16.1,-0.1,29.45,West,270,3.1,10.0,48,0.00,,,0.00,WUHU216HW,2013-02-18 04:05:00,
2013-02-17 23:10:00,16.1,-0.1,29.45,SW,225,10.2,10.2,48,0.00,,,0.00,WUHU216HW,2013-02-18 04:10:00,
2013-02-17 23:15:00,15.9,-0.3,29.44,West,270,2.9,10.2,48,0.00,,,0.00,WUHU216HW,2013-02-18 04:15:00,
2013-02-17 23:20:00,15.9,0.1,29.45,South,180,0.8,7.8,49,0.00,,,0.00,WUHU216HW,2013-02-18 04:20:00,
2013-02-17 23:25:00,15.8,0.0,29.45,West,270,7.8,7.8,49,0.00,,,0.00,WUHU216HW,2013-02-18 04:25:00,
2013-02-17 23:30:00,15.6,-0.1,29.46,West,270,6.4,7.8,49,0.00,,,0.00,WUHU216HW,2013-02-18 04:30:00,
2013-02-17 23:35:00,15.6,-0.1,29.46,WSW,248,0.0,7.8,49,0.00,,,0.00,WUHU216HW,2013-02-18 04:35:00,
2013-02-17 23:40:00,15.6,-0.1,29.46,WNW,293,7.3,7.3,49,0.00,,,0.00,WUHU216HW,2013-02-18 04:40:00,
2013-02-17 23:45:00,15.4,0.1,29.46,WSW,248,9.8,9.8,50,0.00,,,0.00,WUHU216HW,2013-02-18 04:45:00,
2013-02-17 23:50:00,15.4,0.1,29.46,West,270,0.0,9.8,50,0.00,,,0.00,WUHU216HW,2013-02-18 04:50:00,
2013-02-17 23:55:00,15.2,0.0,29.47,WSW,248,2.2,5.1,50,0.00,,,0.00,WUHU216HW,2013-02-18 04:55:00,